owner,sensor,date,latitude,longitude,vertical_datum,wind_speed,wind_to_direction,wind_speed_of_gust,qcFlag 
LUMCON,ioos:station:LUMCON:101:1,2019-02-01T00:00:00Z,29.2533,-90.6633,1.0,4.0,29.0,4.4,'1111122,1111122,1111122' 
LUMCON,ioos:station:LUMCON:101:1,2019-02-01T00:15:00Z,29.2533,-90.6633,1.0,5.2,30.0,7.0,'1111122,1111122,1111122' 
LUMCON,ioos:station:LUMCON:101:1,2019-02-01T00:30:00Z,29.2533,-90.6633,1.0,5.2,26.0,6.9,'1111122,1111122,1111122' 
LUMCON,ioos:station:LUMCON:101:1,2019-02-01T00:45:00Z,29.2533,-90.6633,1.0,6.1,27.0,6.3,'1111122,1111122,1111122' 
LUMCON,ioos:station:LUMCON:101:1,2019-02-01T01:00:00Z,29.2533,-90.6633,1.0,6.6,24.0,6.8,'1111122,1111122,1111122' 
LUMCON,ioos:station:LUMCON:101:1,2019-02-01T01:15:00Z,29.2533,-90.6633,1.0,5.1,26.0,6.5,'1111122,1111122,1111122' 
LUMCON,ioos:station:LUMCON:101:1,2019-02-01T01:30:00Z,29.2533,-90.6633,1.0,8.0,25.0,8.8,'1111122,1111122,1111122' 
LUMCON,ioos:station:LUMCON:101:1,2019-02-01T01:45:00Z,29.2533,-90.6633,1.0,4.7,17.0,6.2,'1111122,1111122,1111122' 
LUMCON,ioos:station:LUMCON:101:1,2019-02-01T02:00:00Z,29.2533,-90.6633,1.0,3.0,18.0,3.6,'1111122,1111122,1111122' 
LUMCON,ioos:station:LUMCON:101:1,2019-02-01T02:15:00Z,29.2533,-90.6633,1.0,6.0,31.0,6.5,'1111122,1111122,1111122' 
LUMCON,ioos:station:LUMCON:101:1,2019-02-01T02:30:00Z,29.2533,-90.6633,1.0,6.3,35.0,6.5,'1111122,1111122,1111122' 
LUMCON,ioos:station:LUMCON:101:1,2019-02-01T02:45:00Z,29.2533,-90.6633,1.0,5.6,35.0,6.0,'1111122,1111122,1111122' 
LUMCON,ioos:station:LUMCON:101:1,2019-02-01T03:00:00Z,29.2533,-90.6633,1.0,4.7,22.0,5.1,'1111122,1111122,1111122' 
LUMCON,ioos:station:LUMCON:101:1,2019-02-01T03:15:00Z,29.2533,-90.6633,1.0,4.7,40.0,5.7,'1111122,1111122,1111122' 
LUMCON,ioos:station:LUMCON:101:1,2019-02-01T03:30:00Z,29.2533,-90.6633,1.0,4.9,27.0,5.6,'1111122,1111122,1111122' 
LUMCON,ioos:station:LUMCON:101:1,2019-02-01T03:45:00Z,29.2533,-90.6633,1.0,5.2,27.0,5.5,'1111122,1111122,1111122' 
LUMCON,ioos:station:LUMCON:101:1,2019-02-01T04:00:00Z,29.2533,-90.6633,1.0,6.4,37.0,7.2,'1111122,1111122,1111122' 
LUMCON,ioos:station:LUMCON:101:1,2019-02-01T04:15:00Z,29.2533,-90.6633,1.0,6.6,26.0,6.9,'1111122,1111122,1111122' 
LUMCON,ioos:station:LUMCON:101:1,2019-02-01T04:30:00Z,29.2533,-90.6633,1.0,4.3,30.0,4.7,'1111122,1111122,1111122' 
LUMCON,ioos:station:LUMCON:101:1,2019-02-01T04:45:00Z,29.2533,-90.6633,1.0,4.9,52.0,5.3,'1111122,1111122,1111122' 
LUMCON,ioos:station:LUMCON:101:1,2019-02-01T05:00:00Z,29.2533,-90.6633,1.0,4.9,31.0,5.9,'1111122,1111122,1111122' 
LUMCON,ioos:station:LUMCON:101:1,2019-02-01T05:15:00Z,29.2533,-90.6633,1.0,5.0,38.0,5.6,'1111122,1111122,1111122' 
LUMCON,ioos:station:LUMCON:101:1,2019-02-01T05:30:00Z,29.2533,-90.6633,1.0,3.8,39.0,4.7,'1111122,1111122,1111122' 
LUMCON,ioos:station:LUMCON:101:1,2019-02-01T05:45:00Z,29.2533,-90.6633,1.0,5.7,49.0,6.0,'1111122,1111122,1111122' 
LUMCON,ioos:station:LUMCON:101:1,2019-02-01T06:00:00Z,29.2533,-90.6633,1.0,3.1,50.0,3.6,'1111122,1111122,1111122' 
LUMCON,ioos:station:LUMCON:101:1,2019-02-01T06:15:00Z,29.2533,-90.6633,1.0,5.0,52.0,5.5,'1111122,1111122,1111122' 
LUMCON,ioos:station:LUMCON:101:1,2019-02-01T06:30:00Z,29.2533,-90.6633,1.0,3.0,31.0,3.2,'1111122,1111122,1111122' 
LUMCON,ioos:station:LUMCON:101:1,2019-02-01T06:45:00Z,29.2533,-90.6633,1.0,3.6,56.0,3.9,'1111122,1111122,1111122' 
LUMCON,ioos:station:LUMCON:101:1,2019-02-01T07:00:00Z,29.2533,-90.6633,1.0,6.0,59.0,6.7,'1111122,1111122,1111122' 
LUMCON,ioos:station:LUMCON:101:1,2019-02-01T07:15:00Z,29.2533,-90.6633,1.0,6.7,71.0,7.5,'1111122,1111122,1111122' 
LUMCON,ioos:station:LUMCON:101:1,2019-02-01T07:30:00Z,29.2533,-90.6633,1.0,3.4,45.0,3.7,'1111122,1111122,1111122' 
LUMCON,ioos:station:LUMCON:101:1,2019-02-01T07:45:00Z,29.2533,-90.6633,1.0,5.4,36.0,5.6,'1111122,1111122,1111122' 
LUMCON,ioos:station:LUMCON:101:1,2019-02-01T08:00:00Z,29.2533,-90.6633,1.0,4.6,63.0,4.9,'1111122,1111122,1111122' 
LUMCON,ioos:station:LUMCON:101:1,2019-02-01T08:15:00Z,29.2533,-90.6633,1.0,3.0,43.0,3.6,'1111122,1111122,1111122' 
LUMCON,ioos:station:LUMCON:101:1,2019-02-01T08:30:00Z,29.2533,-90.6633,1.0,4.4,40.0,5.3,'1111122,1111122,1111122' 
LUMCON,ioos:station:LUMCON:101:1,2019-02-01T08:45:00Z,29.2533,-90.6633,1.0,3.5,50.0,4.3,'1111122,1111122,1111122' 
LUMCON,ioos:station:LUMCON:101:1,2019-02-01T09:00:00Z,29.2533,-90.6633,1.0,3.3,29.0,3.6,'1111122,1111122,1111122' 
LUMCON,ioos:station:LUMCON:101:1,2019-02-01T09:15:00Z,29.2533,-90.6633,1.0,2.8,40.0,3.3,'1111122,1111122,1111122' 
LUMCON,ioos:station:LUMCON:101:1,2019-02-01T09:30:00Z,29.2533,-90.6633,1.0,2.7,54.0,3.1,'1111122,1111122,1111122' 
LUMCON,ioos:station:LUMCON:101:1,2019-02-01T09:45:00Z,29.2533,-90.6633,1.0,4.1,66.0,4.9,'1111122,1111122,1111122' 
LUMCON,ioos:station:LUMCON:101:1,2019-02-01T10:00:00Z,29.2533,-90.6633,1.0,4.3,70.0,5.1,'1111122,1111122,1111122' 
LUMCON,ioos:station:LUMCON:101:1,2019-02-01T10:15:00Z,29.2533,-90.6633,1.0,3.8,47.0,4.8,'1111122,1111122,1111122' 
LUMCON,ioos:station:LUMCON:101:1,2019-02-01T10:30:00Z,29.2533,-90.6633,1.0,3.4,39.0,3.8,'1111122,1111122,1111122' 
LUMCON,ioos:station:LUMCON:101:1,2019-02-01T10:45:00Z,29.2533,-90.6633,1.0,8.1,70.0,8.8,'1111122,1111122,1111122' 
LUMCON,ioos:station:LUMCON:101:1,2019-02-01T11:00:00Z,29.2533,-90.6633,1.0,4.7,58.0,5.2,'1111122,1111122,1111122' 
LUMCON,ioos:station:LUMCON:101:1,2019-02-01T11:15:00Z,29.2533,-90.6633,1.0,5.6,64.0,6.6,'1111122,1111122,1111122' 
LUMCON,ioos:station:LUMCON:101:1,2019-02-01T11:30:00Z,29.2533,-90.6633,1.0,3.2,74.0,3.8,'1111122,1111122,1111122' 
LUMCON,ioos:station:LUMCON:101:1,2019-02-01T11:45:00Z,29.2533,-90.6633,1.0,5.3,66.0,6.1,'1111122,1111122,1111122' 
LUMCON,ioos:station:LUMCON:101:1,2019-02-01T12:00:00Z,29.2533,-90.6633,1.0,6.2,67.0,7.0,'1111122,1111122,1111122' 
LUMCON,ioos:station:LUMCON:101:1,2019-02-01T12:15:00Z,29.2533,-90.6633,1.0,6.3,76.0,6.8,'1111122,1111122,1111122' 
LUMCON,ioos:station:LUMCON:101:1,2019-02-01T12:30:00Z,29.2533,-90.6633,1.0,7.5,78.0,8.4,'1111122,1111122,1111122' 
LUMCON,ioos:station:LUMCON:101:1,2019-02-01T12:45:00Z,29.2533,-90.6633,1.0,4.8,78.0,5.1,'1111122,1111122,1111122' 
LUMCON,ioos:station:LUMCON:101:1,2019-02-01T13:00:00Z,29.2533,-90.6633,1.0,6.9,87.0,7.8,'1111122,1111122,1111122' 
LUMCON,ioos:station:LUMCON:101:1,2019-02-01T13:15:00Z,29.2533,-90.6633,1.0,6.2,76.0,6.6,'1111122,1111122,1111122' 
LUMCON,ioos:station:LUMCON:101:1,2019-02-01T13:30:00Z,29.2533,-90.6633,1.0,5.6,73.0,6.6,'1111122,1111122,1111122' 
LUMCON,ioos:station:LUMCON:101:1,2019-02-01T13:45:00Z,29.2533,-90.6633,1.0,7.7,90.0,8.5,'1111122,1111122,1111122' 
LUMCON,ioos:station:LUMCON:101:1,2019-02-01T14:00:00Z,29.2533,-90.6633,1.0,5.0,63.0,6.2,'1111122,1111122,1111122' 
LUMCON,ioos:station:LUMCON:101:1,2019-02-01T14:15:00Z,29.2533,-90.6633,1.0,6.5,71.0,7.7,'1111122,1111122,1111122' 
LUMCON,ioos:station:LUMCON:101:1,2019-02-01T14:30:00Z,29.2533,-90.6633,1.0,2.2,69.0,2.5,'1111122,1111122,1111122' 
LUMCON,ioos:station:LUMCON:101:1,2019-02-01T14:45:00Z,29.2533,-90.6633,1.0,4.5,32.0,4.8,'1111122,1111122,1111122' 
LUMCON,ioos:station:LUMCON:101:1,2019-02-01T15:00:00Z,29.2533,-90.6633,1.0,2.7,38.0,2.8,'1111122,1111122,1111122' 
LUMCON,ioos:station:LUMCON:101:1,2019-02-01T15:15:00Z,29.2533,-90.6633,1.0,4.9,25.0,5.9,'1111122,1111122,1111122' 
LUMCON,ioos:station:LUMCON:101:1,2019-02-01T15:30:00Z,29.2533,-90.6633,1.0,5.2,25.0,5.8,'1111122,1111122,1111122' 
LUMCON,ioos:station:LUMCON:101:1,2019-02-01T15:45:00Z,29.2533,-90.6633,1.0,6.9,22.0,7.3,'1111122,1111122,1111122' 
LUMCON,ioos:station:LUMCON:101:1,2019-02-01T16:00:00Z,29.2533,-90.6633,1.0,6.9,15.0,7.5,'1111122,1111122,1111122' 
LUMCON,ioos:station:LUMCON:101:1,2019-02-01T16:15:00Z,29.2533,-90.6633,1.0,8.3,10.0,8.8,'1111122,1111122,1111122' 
LUMCON,ioos:station:LUMCON:101:1,2019-02-01T16:30:00Z,29.2533,-90.6633,1.0,7.1,10.0,7.8,'1111122,1111122,1111122' 
LUMCON,ioos:station:LUMCON:101:1,2019-02-01T16:45:00Z,29.2533,-90.6633,1.0,6.9,26.0,7.9,'1111122,1111122,1111122' 
LUMCON,ioos:station:LUMCON:101:1,2019-02-01T17:00:00Z,29.2533,-90.6633,1.0,6.1,12.0,6.7,'1111122,1111122,1111122' 
LUMCON,ioos:station:LUMCON:101:1,2019-02-01T17:15:00Z,29.2533,-90.6633,1.0,6.0,6.0,6.2,'1111122,1111122,1111122' 
LUMCON,ioos:station:LUMCON:101:1,2019-02-01T17:30:00Z,29.2533,-90.6633,1.0,6.6,3.0,6.8,'1111122,1111122,1111122' 
LUMCON,ioos:station:LUMCON:101:1,2019-02-01T17:45:00Z,29.2533,-90.6633,1.0,7.0,12.0,7.7,'1111122,1111122,1111122' 
LUMCON,ioos:station:LUMCON:101:1,2019-02-01T18:00:00Z,29.2533,-90.6633,1.0,6.7,16.0,7.1,'1111122,1111122,1111122' 
LUMCON,ioos:station:LUMCON:101:1,2019-02-01T18:15:00Z,29.2533,-90.6633,1.0,4.6,14.0,5.3,'1111122,1111122,1111122' 
LUMCON,ioos:station:LUMCON:101:1,2019-02-01T18:30:00Z,29.2533,-90.6633,1.0,5.6,12.0,5.7,'1111122,1111122,1111122' 
LUMCON,ioos:station:LUMCON:101:1,2019-02-01T18:45:00Z,29.2533,-90.6633,1.0,7.6,10.0,7.9,'1111122,1111122,1111122' 
LUMCON,ioos:station:LUMCON:101:1,2019-02-01T19:00:00Z,29.2533,-90.6633,1.0,5.6,24.0,7.0,'1111122,1111122,1111122' 
LUMCON,ioos:station:LUMCON:101:1,2019-02-01T19:15:00Z,29.2533,-90.6633,1.0,6.1,4.0,6.4,'1111122,1111122,1111122' 
LUMCON,ioos:station:LUMCON:101:1,2019-02-01T19:30:00Z,29.2533,-90.6633,1.0,4.1,30.0,4.6,'1111122,1111122,1111122' 
LUMCON,ioos:station:LUMCON:101:1,2019-02-01T19:45:00Z,29.2533,-90.6633,1.0,7.3,24.0,7.5,'1111122,1111122,1111122' 
LUMCON,ioos:station:LUMCON:101:1,2019-02-01T20:00:00Z,29.2533,-90.6633,1.0,6.3,21.0,6.7,'1111122,1111122,1111122' 
LUMCON,ioos:station:LUMCON:101:1,2019-02-01T20:15:00Z,29.2533,-90.6633,1.0,5.5,38.0,6.8,'1111122,1111122,1111122' 
LUMCON,ioos:station:LUMCON:101:1,2019-02-01T20:30:00Z,29.2533,-90.6633,1.0,5.0,28.0,5.3,'1111122,1111122,1111122' 
LUMCON,ioos:station:LUMCON:101:1,2019-02-01T20:45:00Z,29.2533,-90.6633,1.0,4.6,32.0,5.4,'1111122,1111122,1111122' 
LUMCON,ioos:station:LUMCON:101:1,2019-02-01T21:00:00Z,29.2533,-90.6633,1.0,6.8,21.0,7.3,'1111122,1111122,1111122' 
LUMCON,ioos:station:LUMCON:101:1,2019-02-01T21:15:00Z,29.2533,-90.6633,1.0,6.8,23.0,7.3,'1111122,1111122,1111122' 
LUMCON,ioos:station:LUMCON:101:1,2019-02-01T21:30:00Z,29.2533,-90.6633,1.0,5.2,27.0,6.0,'1111122,1111122,1111122' 
LUMCON,ioos:station:LUMCON:101:1,2019-02-01T21:45:00Z,29.2533,-90.6633,1.0,6.5,24.0,6.8,'1111122,1111122,1111122' 
LUMCON,ioos:station:LUMCON:101:1,2019-02-01T22:00:00Z,29.2533,-90.6633,1.0,6.7,24.0,7.0,'1111122,1111122,1111122' 
LUMCON,ioos:station:LUMCON:101:1,2019-02-01T22:15:00Z,29.2533,-90.6633,1.0,7.5,28.0,7.9,'1111122,1111122,1111122' 
LUMCON,ioos:station:LUMCON:101:1,2019-02-01T22:30:00Z,29.2533,-90.6633,1.0,6.0,32.0,6.6,'1111122,1111122,1111122' 
LUMCON,ioos:station:LUMCON:101:1,2019-02-01T22:45:00Z,29.2533,-90.6633,1.0,7.0,37.0,7.7,'1111122,1111122,1111122' 
LUMCON,ioos:station:LUMCON:101:1,2019-02-01T23:00:00Z,29.2533,-90.6633,1.0,2.5,22.0,2.9,'1111122,1111122,1111122' 
LUMCON,ioos:station:LUMCON:101:1,2019-02-01T23:15:00Z,29.2533,-90.6633,1.0,5.3,20.0,5.8,'1111122,1111122,1111122' 
LUMCON,ioos:station:LUMCON:101:1,2019-02-01T23:30:00Z,29.2533,-90.6633,1.0,4.2,6.0,4.7,'1111122,1111122,1111122' 
LUMCON,ioos:station:LUMCON:101:1,2019-02-01T23:45:00Z,29.2533,-90.6633,1.0,5.1,3.0,5.5,'1111122,1111122,1111122' 
LUMCON,ioos:station:LUMCON:101:1,2019-02-02T00:00:00Z,29.2533,-90.6633,1.0,4.0,14.0,4.3,'1111122,1111122,1111122' 
LUMCON,ioos:station:LUMCON:101:1,2019-02-02T00:15:00Z,29.2533,-90.6633,1.0,5.4,17.0,5.6,'1111122,1111122,1111122' 
LUMCON,ioos:station:LUMCON:101:1,2019-02-02T00:30:00Z,29.2533,-90.6633,1.0,5.0,5.0,5.5,'1111122,1111122,1111122' 
LUMCON,ioos:station:LUMCON:101:1,2019-02-02T00:45:00Z,29.2533,-90.6633,1.0,6.0,25.0,6.3,'1111122,1111122,1111122' 
LUMCON,ioos:station:LUMCON:101:1,2019-02-02T01:00:00Z,29.2533,-90.6633,1.0,5.4,17.0,5.7,'1111122,1111122,1111122' 
LUMCON,ioos:station:LUMCON:101:1,2019-02-02T01:15:00Z,29.2533,-90.6633,1.0,5.7,32.0,6.0,'1111122,1111122,1111122' 
LUMCON,ioos:station:LUMCON:101:1,2019-02-02T01:30:00Z,29.2533,-90.6633,1.0,3.7,26.0,4.4,'1111122,1111122,1111122' 
LUMCON,ioos:station:LUMCON:101:1,2019-02-02T01:45:00Z,29.2533,-90.6633,1.0,3.6,18.0,4.1,'1111122,1111122,1111122' 
LUMCON,ioos:station:LUMCON:101:1,2019-02-02T02:00:00Z,29.2533,-90.6633,1.0,4.1,35.0,4.7,'1111122,1111122,1111122' 
LUMCON,ioos:station:LUMCON:101:1,2019-02-02T02:15:00Z,29.2533,-90.6633,1.0,5.8,26.0,6.5,'1111122,1111122,1111122' 
LUMCON,ioos:station:LUMCON:101:1,2019-02-02T02:30:00Z,29.2533,-90.6633,1.0,2.9,35.0,3.4,'1111122,1111122,1111122' 
LUMCON,ioos:station:LUMCON:101:1,2019-02-02T02:45:00Z,29.2533,-90.6633,1.0,3.6,22.0,4.3,'1111122,1111122,1111122' 
LUMCON,ioos:station:LUMCON:101:1,2019-02-02T03:00:00Z,29.2533,-90.6633,1.0,5.3,26.0,6.0,'1111122,1111122,1111122' 
LUMCON,ioos:station:LUMCON:101:1,2019-02-02T03:15:00Z,29.2533,-90.6633,1.0,5.6,27.0,5.9,'1111122,1111122,1111122' 
LUMCON,ioos:station:LUMCON:101:1,2019-02-02T03:30:00Z,29.2533,-90.6633,1.0,3.2,36.0,3.7,'1111122,1111122,1111122' 
LUMCON,ioos:station:LUMCON:101:1,2019-02-02T03:45:00Z,29.2533,-90.6633,1.0,3.3,42.0,4.2,'1111122,1111122,1111122' 
LUMCON,ioos:station:LUMCON:101:1,2019-02-02T04:00:00Z,29.2533,-90.6633,1.0,5.2,30.0,5.4,'1111122,1111122,1111122' 
LUMCON,ioos:station:LUMCON:101:1,2019-02-02T04:15:00Z,29.2533,-90.6633,1.0,5.6,32.0,6.0,'1111122,1111122,1111122' 
LUMCON,ioos:station:LUMCON:101:1,2019-02-02T04:30:00Z,29.2533,-90.6633,1.0,6.6,40.0,7.7,'1111122,1111122,1111122' 
LUMCON,ioos:station:LUMCON:101:1,2019-02-02T04:45:00Z,29.2533,-90.6633,1.0,5.2,48.0,5.6,'1111122,1111122,1111122' 
LUMCON,ioos:station:LUMCON:101:1,2019-02-02T05:00:00Z,29.2533,-90.6633,1.0,3.5,24.0,4.7,'1111122,1111122,1111122' 
LUMCON,ioos:station:LUMCON:101:1,2019-02-02T05:15:00Z,29.2533,-90.6633,1.0,3.8,38.0,4.0,'1111122,1111122,1111122' 
LUMCON,ioos:station:LUMCON:101:1,2019-02-02T05:30:00Z,29.2533,-90.6633,1.0,3.2,28.0,4.3,'1111122,1111122,1111122' 
LUMCON,ioos:station:LUMCON:101:1,2019-02-02T05:45:00Z,29.2533,-90.6633,1.0,4.1,34.0,4.9,'1111122,1111122,1111122' 
LUMCON,ioos:station:LUMCON:101:1,2019-02-02T06:00:00Z,29.2533,-90.6633,1.0,4.8,28.0,5.0,'1111122,1111122,1111122' 
LUMCON,ioos:station:LUMCON:101:1,2019-02-02T06:15:00Z,29.2533,-90.6633,1.0,5.4,13.0,5.7,'1111122,1111122,1111122' 
LUMCON,ioos:station:LUMCON:101:1,2019-02-02T06:30:00Z,29.2533,-90.6633,1.0,5.1,25.0,5.4,'1111122,1111122,1111122' 
LUMCON,ioos:station:LUMCON:101:1,2019-02-02T06:45:00Z,29.2533,-90.6633,1.0,4.4,21.0,4.7,'1111122,1111122,1111122' 
LUMCON,ioos:station:LUMCON:101:1,2019-02-02T07:00:00Z,29.2533,-90.6633,1.0,4.2,22.0,4.5,'1111122,1111122,1111122' 
LUMCON,ioos:station:LUMCON:101:1,2019-02-02T07:15:00Z,29.2533,-90.6633,1.0,3.6,32.0,3.9,'1111122,1111122,1111122' 
LUMCON,ioos:station:LUMCON:101:1,2019-02-02T07:30:00Z,29.2533,-90.6633,1.0,4.3,20.0,4.5,'1111122,1111122,1111122' 
LUMCON,ioos:station:LUMCON:101:1,2019-02-02T07:45:00Z,29.2533,-90.6633,1.0,3.8,20.0,4.0,'1111122,1111122,1111122' 
LUMCON,ioos:station:LUMCON:101:1,2019-02-02T08:00:00Z,29.2533,-90.6633,1.0,5.0,26.0,5.6,'1111122,1111122,1111122' 
LUMCON,ioos:station:LUMCON:101:1,2019-02-02T08:15:00Z,29.2533,-90.6633,1.0,4.8,24.0,5.0,'1111122,1111122,1111122' 
LUMCON,ioos:station:LUMCON:101:1,2019-02-02T08:30:00Z,29.2533,-90.6633,1.0,4.5,14.0,4.8,'1111122,1111122,1111122' 
LUMCON,ioos:station:LUMCON:101:1,2019-02-02T08:45:00Z,29.2533,-90.6633,1.0,4.1,18.0,4.3,'1111122,1111122,1111122' 
LUMCON,ioos:station:LUMCON:101:1,2019-02-02T09:00:00Z,29.2533,-90.6633,1.0,3.9,27.0,4.2,'1111122,1111122,1111122' 
LUMCON,ioos:station:LUMCON:101:1,2019-02-02T09:15:00Z,29.2533,-90.6633,1.0,4.1,35.0,4.4,'1111122,1111122,1111122' 
LUMCON,ioos:station:LUMCON:101:1,2019-02-02T09:30:00Z,29.2533,-90.6633,1.0,2.7,28.0,3.0,'1111122,1111122,1111122' 
LUMCON,ioos:station:LUMCON:101:1,2019-02-02T09:45:00Z,29.2533,-90.6633,1.0,3.7,26.0,4.2,'1111122,1111122,1111122' 
LUMCON,ioos:station:LUMCON:101:1,2019-02-02T10:00:00Z,29.2533,-90.6633,1.0,4.5,22.0,4.9,'1111122,1111122,1111122' 
LUMCON,ioos:station:LUMCON:101:1,2019-02-02T10:15:00Z,29.2533,-90.6633,1.0,4.2,36.0,5.0,'1111122,1111122,1111122' 
LUMCON,ioos:station:LUMCON:101:1,2019-02-02T10:30:00Z,29.2533,-90.6633,1.0,4.7,28.0,5.1,'1111122,1111122,1111122' 
LUMCON,ioos:station:LUMCON:101:1,2019-02-02T10:45:00Z,29.2533,-90.6633,1.0,4.6,16.0,4.9,'1111122,1111122,1111122' 
LUMCON,ioos:station:LUMCON:101:1,2019-02-02T11:00:00Z,29.2533,-90.6633,1.0,2.6,17.0,2.8,'1111122,1111122,1111122' 
LUMCON,ioos:station:LUMCON:101:1,2019-02-02T11:15:00Z,29.2533,-90.6633,1.0,3.9,26.0,4.2,'1111122,1111122,1111122' 
LUMCON,ioos:station:LUMCON:101:1,2019-02-02T11:30:00Z,29.2533,-90.6633,1.0,4.4,23.0,4.7,'1111122,1111122,1111122' 
LUMCON,ioos:station:LUMCON:101:1,2019-02-02T11:45:00Z,29.2533,-90.6633,1.0,3.9,10.0,4.0,'1111122,1111122,1111122' 
LUMCON,ioos:station:LUMCON:101:1,2019-02-02T12:00:00Z,29.2533,-90.6633,1.0,2.7,23.0,3.2,'1111122,1111122,1111122' 
LUMCON,ioos:station:LUMCON:101:1,2019-02-02T12:15:00Z,29.2533,-90.6633,1.0,3.2,0.0,3.6,'1111122,1114422,1111122' 
LUMCON,ioos:station:LUMCON:101:1,2019-02-02T12:30:00Z,29.2533,-90.6633,1.0,3.5,5.0,3.9,'1111122,1111122,1111122' 
LUMCON,ioos:station:LUMCON:101:1,2019-02-02T12:45:00Z,29.2533,-90.6633,1.0,3.1,351.0,3.8,'1111122,1111122,1111122' 
LUMCON,ioos:station:LUMCON:101:1,2019-02-02T13:00:00Z,29.2533,-90.6633,1.0,3.5,345.0,3.6,'1111122,1111122,1111122' 
LUMCON,ioos:station:LUMCON:101:1,2019-02-02T13:15:00Z,29.2533,-90.6633,1.0,4.4,357.0,5.2,'1111122,1111122,1111122' 
LUMCON,ioos:station:LUMCON:101:1,2019-02-02T13:30:00Z,29.2533,-90.6633,1.0,3.6,0.0,3.7,'1111122,1114422,1111122' 
LUMCON,ioos:station:LUMCON:101:1,2019-02-02T13:45:00Z,29.2533,-90.6633,1.0,4.3,14.0,4.7,'1111122,1111122,1111122' 
LUMCON,ioos:station:LUMCON:101:1,2019-02-02T14:00:00Z,29.2533,-90.6633,1.0,3.0,21.0,3.2,'1111122,1111122,1111122' 
LUMCON,ioos:station:LUMCON:101:1,2019-02-02T14:15:00Z,29.2533,-90.6633,1.0,3.4,20.0,3.6,'1111122,1111122,1111122' 
LUMCON,ioos:station:LUMCON:101:1,2019-02-02T14:30:00Z,29.2533,-90.6633,1.0,6.3,32.0,6.5,'1111122,1111122,1111122' 
LUMCON,ioos:station:LUMCON:101:1,2019-02-02T14:45:00Z,29.2533,-90.6633,1.0,4.8,23.0,5.3,'1111122,1111122,1111122' 
LUMCON,ioos:station:LUMCON:101:1,2019-02-02T15:00:00Z,29.2533,-90.6633,1.0,4.9,13.0,5.1,'1111122,1111122,1111122' 
LUMCON,ioos:station:LUMCON:101:1,2019-02-02T15:15:00Z,29.2533,-90.6633,1.0,2.9,5.0,3.4,'1111122,1111122,1111122' 
LUMCON,ioos:station:LUMCON:101:1,2019-02-02T15:30:00Z,29.2533,-90.6633,1.0,5.0,4.0,5.3,'1111122,1111122,1111122' 
LUMCON,ioos:station:LUMCON:101:1,2019-02-02T15:45:00Z,29.2533,-90.6633,1.0,4.8,16.0,5.0,'1111122,1111122,1111122' 
LUMCON,ioos:station:LUMCON:101:1,2019-02-02T16:00:00Z,29.2533,-90.6633,1.0,4.3,19.0,4.5,'1111122,1111122,1111122' 
LUMCON,ioos:station:LUMCON:101:1,2019-02-02T16:15:00Z,29.2533,-90.6633,1.0,6.1,14.0,6.4,'1111122,1111122,1111122' 
LUMCON,ioos:station:LUMCON:101:1,2019-02-02T16:30:00Z,29.2533,-90.6633,1.0,4.6,21.0,5.0,'1111122,1111122,1111122' 
LUMCON,ioos:station:LUMCON:101:1,2019-02-02T16:45:00Z,29.2533,-90.6633,1.0,4.2,10.0,4.5,'1111122,1111122,1111122' 
LUMCON,ioos:station:LUMCON:101:1,2019-02-02T17:00:00Z,29.2533,-90.6633,1.0,3.6,3.0,3.9,'1111122,1111122,1111122' 
LUMCON,ioos:station:LUMCON:101:1,2019-02-02T17:15:00Z,29.2533,-90.6633,1.0,4.2,4.0,4.7,'1111122,1111122,1111122' 
LUMCON,ioos:station:LUMCON:101:1,2019-02-02T17:30:00Z,29.2533,-90.6633,1.0,3.0,21.0,3.7,'1111122,1111122,1111122' 
LUMCON,ioos:station:LUMCON:101:1,2019-02-02T17:45:00Z,29.2533,-90.6633,1.0,4.0,7.0,4.2,'1111122,1111122,1111122' 
LUMCON,ioos:station:LUMCON:101:1,2019-02-02T18:00:00Z,29.2533,-90.6633,1.0,4.3,23.0,4.7,'1111122,1111122,1111122' 
LUMCON,ioos:station:LUMCON:101:1,2019-02-02T18:15:00Z,29.2533,-90.6633,1.0,4.4,11.0,4.9,'1111122,1111122,1111122' 
LUMCON,ioos:station:LUMCON:101:1,2019-02-02T18:30:00Z,29.2533,-90.6633,1.0,2.9,337.0,3.5,'1111122,1111122,1111122' 
LUMCON,ioos:station:LUMCON:101:1,2019-02-02T18:45:00Z,29.2533,-90.6633,1.0,4.4,353.0,4.6,'1111122,1111122,1111122' 
LUMCON,ioos:station:LUMCON:101:1,2019-02-02T19:00:00Z,29.2533,-90.6633,1.0,3.9,344.0,4.5,'1111122,1111122,1111122' 
LUMCON,ioos:station:LUMCON:101:1,2019-02-02T19:15:00Z,29.2533,-90.6633,1.0,4.6,355.0,5.1,'1111122,1111122,1111122' 
LUMCON,ioos:station:LUMCON:101:1,2019-02-02T19:30:00Z,29.2533,-90.6633,1.0,5.4,354.0,5.9,'1111122,1111122,1111122' 
LUMCON,ioos:station:LUMCON:101:1,2019-02-02T19:45:00Z,29.2533,-90.6633,1.0,4.8,12.0,5.0,'1111122,1111122,1111122' 
LUMCON,ioos:station:LUMCON:101:1,2019-02-02T20:00:00Z,29.2533,-90.6633,1.0,4.2,13.0,4.5,'1111122,1111122,1111122' 
LUMCON,ioos:station:LUMCON:101:1,2019-02-02T20:15:00Z,29.2533,-90.6633,1.0,3.0,18.0,3.2,'1111122,1111122,1111122' 
LUMCON,ioos:station:LUMCON:101:1,2019-02-02T20:30:00Z,29.2533,-90.6633,1.0,4.8,34.0,5.2,'1111122,1111122,1111122' 
LUMCON,ioos:station:LUMCON:101:1,2019-02-02T20:45:00Z,29.2533,-90.6633,1.0,1.2,52.0,1.7,'1111122,1111122,1111122' 
LUMCON,ioos:station:LUMCON:101:1,2019-02-02T21:00:00Z,29.2533,-90.6633,1.0,4.6,66.0,4.9,'1111122,1111122,1111122' 
LUMCON,ioos:station:LUMCON:101:1,2019-02-02T21:15:00Z,29.2533,-90.6633,1.0,3.1,68.0,3.4,'1111122,1111122,1111122' 
LUMCON,ioos:station:LUMCON:101:1,2019-02-02T21:30:00Z,29.2533,-90.6633,1.0,3.4,69.0,3.6,'1111122,1111122,1111122' 
LUMCON,ioos:station:LUMCON:101:1,2019-02-02T21:45:00Z,29.2533,-90.6633,1.0,2.3,48.0,2.5,'1111122,1111122,1111122' 
LUMCON,ioos:station:LUMCON:101:1,2019-02-02T22:00:00Z,29.2533,-90.6633,1.0,1.9,50.0,2.0,'1111122,1111122,1111122' 
LUMCON,ioos:station:LUMCON:101:1,2019-02-02T22:15:00Z,29.2533,-90.6633,1.0,3.5,49.0,3.6,'1111122,1111122,1111122' 
LUMCON,ioos:station:LUMCON:101:1,2019-02-02T22:30:00Z,29.2533,-90.6633,1.0,1.7,48.0,1.8,'1111122,1111122,1111122' 
LUMCON,ioos:station:LUMCON:101:1,2019-02-02T22:45:00Z,29.2533,-90.6633,1.0,1.8,33.0,2.1,'1111122,1111122,1111122' 
LUMCON,ioos:station:LUMCON:101:1,2019-02-02T23:00:00Z,29.2533,-90.6633,1.0,2.1,44.0,2.3,'1111122,1111122,1111122' 
LUMCON,ioos:station:LUMCON:101:1,2019-02-02T23:15:00Z,29.2533,-90.6633,1.0,1.9,48.0,2.0,'1111122,1111122,1111122' 
LUMCON,ioos:station:LUMCON:101:1,2019-02-02T23:30:00Z,29.2533,-90.6633,1.0,2.1,64.0,2.4,'1111122,1111122,1111122' 
LUMCON,ioos:station:LUMCON:101:1,2019-02-02T23:45:00Z,29.2533,-90.6633,1.0,2.1,72.0,2.2,'1111122,1111122,1111122' 
LUMCON,ioos:station:LUMCON:101:1,2019-02-03T00:00:00Z,29.2533,-90.6633,1.0,2.7,41.0,3.2,'1111122,1111122,1111122' 
LUMCON,ioos:station:LUMCON:101:1,2019-02-03T00:15:00Z,29.2533,-90.6633,1.0,2.8,43.0,3.2,'1111122,1111122,1111122' 
LUMCON,ioos:station:LUMCON:101:1,2019-02-03T00:30:00Z,29.2533,-90.6633,1.0,2.3,47.0,2.5,'1111122,1111122,1111122' 
LUMCON,ioos:station:LUMCON:101:1,2019-02-03T00:45:00Z,29.2533,-90.6633,1.0,2.5,24.0,2.7,'1111122,1111122,1111122' 
LUMCON,ioos:station:LUMCON:101:1,2019-02-03T01:00:00Z,29.2533,-90.6633,1.0,3.7,35.0,4.0,'1111122,1111122,1111122' 
LUMCON,ioos:station:LUMCON:101:1,2019-02-03T01:15:00Z,29.2533,-90.6633,1.0,2.9,33.0,3.2,'1111122,1111122,1111122' 
LUMCON,ioos:station:LUMCON:101:1,2019-02-03T01:30:00Z,29.2533,-90.6633,1.0,2.7,41.0,3.0,'1111122,1111122,1111122' 
LUMCON,ioos:station:LUMCON:101:1,2019-02-03T01:45:00Z,29.2533,-90.6633,1.0,1.2,30.0,1.5,'1111122,1111122,1111122' 
LUMCON,ioos:station:LUMCON:101:1,2019-02-03T02:00:00Z,29.2533,-90.6633,1.0,3.0,30.0,3.5,'1111122,1111122,1111122' 
LUMCON,ioos:station:LUMCON:101:1,2019-02-03T02:15:00Z,29.2533,-90.6633,1.0,4.0,33.0,4.3,'1111122,1111122,1111122' 
LUMCON,ioos:station:LUMCON:101:1,2019-02-03T02:30:00Z,29.2533,-90.6633,1.0,3.4,38.0,3.6,'1111122,1111122,1111122' 
LUMCON,ioos:station:LUMCON:101:1,2019-02-03T02:45:00Z,29.2533,-90.6633,1.0,2.8,31.0,3.1,'1111122,1111122,1111122' 
LUMCON,ioos:station:LUMCON:101:1,2019-02-03T03:00:00Z,29.2533,-90.6633,1.0,3.1,35.0,3.6,'1111122,1111122,1111122' 
LUMCON,ioos:station:LUMCON:101:1,2019-02-03T03:15:00Z,29.2533,-90.6633,1.0,2.2,36.0,2.3,'1111122,1111122,1111122' 
LUMCON,ioos:station:LUMCON:101:1,2019-02-03T03:30:00Z,29.2533,-90.6633,1.0,3.6,23.0,5.0,'1111122,1111122,1111122' 